EJU73AC EDDB-LFMN

Flight info

Callsign EJU73AC
Flight time 1h 47m
Altitude 38000
Route LUROS3Q LUROS Y211 BEBKU Z36 MAREM DCT RUDAP DCT EBEDA DCT BADVI DCT BERAS DCT OLPIX/N0436F370 DCT EKPEB DCT ATPED DCT LUSIL DCT EVANO DCT ENOBA Z185 ASBOP/N0341F190 Z185 BORDI
Aircraft A320/M-SDE2E3FGHIJ1RWXYZ/LB1

Departure

Time 2026-05-05 11:58
Airport Berlin Brandenburg Airport (EDDB)

Arrival

Time 2026-05-05 13:45
Airport Nice-Côte d'Azur Airport (LFMN)
Time Latitude Longitude Altitude Speed Heading
2026-05-05 11:23 52.35914 13.50422 154 ft 0 kts 249°
2026-05-05 11:47 52.35915 13.50429 153 ft 3 kts 249°
2026-05-05 11:48 52.35937 13.50509 153 ft 4 kts 234°
2026-05-05 11:48 52.35956 13.50539 153 ft 4 kts 200°
2026-05-05 11:48 52.35973 13.50542 153 ft 1 kts 159°
2026-05-05 11:49 52.35976 13.50540 153 ft 0 kts 159°
2026-05-05 11:50 52.35975 13.50540 153 ft 0 kts 159°
2026-05-05 11:50 52.35963 13.50548 153 ft 4 kts 159°
2026-05-05 11:51 52.35927 13.50571 153 ft 7 kts 159°
2026-05-05 11:51 52.35891 13.50594 154 ft 9 kts 159°
2026-05-05 11:51 52.35818 13.50637 154 ft 13 kts 168°
2026-05-05 11:51 52.35754 13.50542 156 ft 14 kts 249°
2026-05-05 11:52 52.35718 13.50389 157 ft 15 kts 249°
2026-05-05 11:52 52.35676 13.50212 157 ft 18 kts 248°
2026-05-05 11:52 52.35629 13.50011 155 ft 20 kts 249°
2026-05-05 11:52 52.35577 13.49796 155 ft 20 kts 249°
2026-05-05 11:53 52.35525 13.49574 157 ft 21 kts 248°
2026-05-05 11:53 52.35471 13.49349 159 ft 22 kts 249°
2026-05-05 11:53 52.35415 13.49111 159 ft 23 kts 249°
2026-05-05 11:53 52.35355 13.48858 158 ft 25 kts 249°
2026-05-05 11:54 52.35291 13.48593 156 ft 27 kts 248°
2026-05-05 11:54 52.35221 13.48294 155 ft 29 kts 249°
2026-05-05 11:54 52.35150 13.47994 158 ft 24 kts 248°
2026-05-05 11:54 52.35090 13.47746 157 ft 24 kts 248°
2026-05-05 11:55 52.35028 13.47481 156 ft 26 kts 249°
2026-05-05 11:55 52.34960 13.47197 157 ft 27 kts 250°
2026-05-05 11:55 52.34901 13.46946 158 ft 17 kts 249°
2026-05-05 11:55 52.34857 13.46763 159 ft 15 kts 248°
2026-05-05 11:56 52.34780 13.46729 161 ft 11 kts 159°
2026-05-05 11:56 52.34721 13.46766 163 ft 8 kts 159°
2026-05-05 11:56 52.34661 13.46804 162 ft 12 kts 159°
2026-05-05 11:56 52.34584 13.46876 162 ft 14 kts 128°
2026-05-05 11:57 52.34591 13.47044 161 ft 25 kts 70°
2026-05-05 11:57 52.34750 13.47714 160 ft 98 kts 69°
2026-05-05 11:57 52.35069 13.49048 159 ft 152 kts 69°
2026-05-05 11:57 52.35483 13.50783 585 ft 163 kts 70°
2026-05-05 11:58 52.35602 13.52601 1216 ft 168 kts 109°
2026-05-05 11:58 52.34861 13.54119 1808 ft 174 kts 139°
2026-05-05 11:58 52.33968 13.55446 2523 ft 173 kts 136°
2026-05-05 11:58 52.33108 13.56824 3197 ft 174 kts 136°
2026-05-05 11:59 52.32227 13.58273 3636 ft 189 kts 136°
2026-05-05 11:59 52.31256 13.59903 3927 ft 212 kts 135°
2026-05-05 11:59 52.30184 13.61701 4453 ft 227 kts 135°
2026-05-05 11:59 52.29029 13.63480 5274 ft 230 kts 148°
2026-05-05 12:00 52.27555 13.64423 6084 ft 229 kts 172°
2026-05-05 12:00 52.25979 13.64880 6851 ft 231 kts 173°
2026-05-05 12:00 52.24383 13.65324 7629 ft 234 kts 173°
2026-05-05 12:00 52.22727 13.65778 8122 ft 252 kts 174°
2026-05-05 12:01 52.20912 13.66275 8542 ft 275 kts 173°
2026-05-05 12:01 52.18996 13.66807 9276 ft 283 kts 173°
2026-05-05 12:01 52.17045 13.67355 10112 ft 289 kts 173°
2026-05-05 12:01 52.14990 13.67923 10436 ft 311 kts 173°
2026-05-05 12:02 52.12826 13.68520 10963 ft 324 kts 173°
2026-05-05 12:02 52.10578 13.69149 11747 ft 330 kts 173°
2026-05-05 12:02 52.08305 13.69793 12558 ft 333 kts 173°
2026-05-05 12:02 52.06013 13.70443 13358 ft 336 kts 173°
2026-05-05 12:03 52.03697 13.71097 14062 ft 340 kts 173°
2026-05-05 12:03 52.01356 13.71753 14722 ft 343 kts 174°
2026-05-05 12:03 51.98968 13.72416 15404 ft 345 kts 174°
2026-05-05 12:03 51.96588 13.73071 16065 ft 348 kts 174°
2026-05-05 12:04 51.94191 13.73730 16722 ft 351 kts 174°
2026-05-05 12:04 51.91801 13.74393 17365 ft 355 kts 174°
2026-05-05 12:04 51.89358 13.75072 18009 ft 358 kts 174°
2026-05-05 12:04 51.86891 13.75754 18587 ft 361 kts 174°
2026-05-05 12:05 51.84370 13.76449 19135 ft 364 kts 174°
2026-05-05 12:05 51.81864 13.77141 19690 ft 367 kts 174°
2026-05-05 12:05 51.79332 13.77845 20238 ft 370 kts 174°
2026-05-05 12:05 51.76786 13.78548 20777 ft 373 kts 174°
2026-05-05 12:06 51.74217 13.79256 21310 ft 376 kts 174°
2026-05-05 12:06 51.71629 13.79971 21822 ft 379 kts 174°
2026-05-05 12:06 51.69023 13.80688 22334 ft 382 kts 174°
2026-05-05 12:06 51.66395 13.81408 22841 ft 384 kts 174°
2026-05-05 12:07 51.63746 13.82135 23349 ft 387 kts 174°
2026-05-05 12:07 51.61082 13.82865 23775 ft 390 kts 174°
2026-05-05 12:07 51.58438 13.83587 24189 ft 392 kts 174°
2026-05-05 12:07 51.55739 13.84322 24604 ft 394 kts 174°
2026-05-05 12:08 51.52992 13.85070 25014 ft 396 kts 174°
2026-05-05 12:08 51.50265 13.85814 25412 ft 399 kts 174°
2026-05-05 12:08 51.47523 13.86518 25812 ft 399 kts 178°
2026-05-05 12:08 51.44758 13.86619 26195 ft 397 kts 188°
2026-05-05 12:09 51.42108 13.86021 26565 ft 396 kts 194°
2026-05-05 12:09 51.39389 13.85223 26951 ft 398 kts 193°
2026-05-05 12:09 51.36655 13.84431 27331 ft 401 kts 193°
2026-05-05 12:09 51.33936 13.83646 27706 ft 403 kts 193°
2026-05-05 12:10 51.31174 13.82850 28082 ft 405 kts 193°
2026-05-05 12:10 51.28360 13.82042 28458 ft 407 kts 193°
2026-05-05 12:10 51.25561 13.81242 28818 ft 409 kts 193°
2026-05-05 12:10 51.22752 13.80437 29177 ft 412 kts 193°
2026-05-05 12:11 51.19927 13.79627 29532 ft 414 kts 193°
2026-05-05 12:11 51.17083 13.78815 29885 ft 416 kts 193°
2026-05-05 12:11 51.14267 13.78013 30176 ft 418 kts 193°
2026-05-05 12:11 51.11402 13.77194 30463 ft 420 kts 193°
2026-05-05 12:12 51.08522 13.76372 30747 ft 421 kts 193°
2026-05-05 12:12 51.05628 13.75546 31025 ft 423 kts 194°
2026-05-05 12:12 51.02725 13.74718 31306 ft 424 kts 194°
2026-05-05 12:12 50.99825 13.73894 31699 ft 423 kts 194°
2026-05-05 12:13 50.96929 13.73074 32072 ft 422 kts 194°
2026-05-05 12:13 50.94048 13.72261 32456 ft 421 kts 194°
2026-05-05 12:13 50.91166 13.71450 32826 ft 420 kts 194°
2026-05-05 12:13 50.88322 13.70483 33195 ft 416 kts 200°
2026-05-05 12:14 50.85545 13.69219 33569 ft 415 kts 200°
2026-05-05 12:14 50.82774 13.67955 33915 ft 414 kts 200°
2026-05-05 12:14 50.80009 13.66700 34214 ft 413 kts 200°
2026-05-05 12:14 50.77241 13.65451 34479 ft 413 kts 199°
2026-05-05 12:15 50.74475 13.64208 34765 ft 413 kts 199°
2026-05-05 12:15 50.71708 13.62998 35049 ft 414 kts 196°
2026-05-05 12:15 50.68863 13.62204 35311 ft 415 kts 193°
2026-05-05 12:15 50.66012 13.61482 35584 ft 415 kts 193°
2026-05-05 12:16 50.63164 13.60761 35840 ft 415 kts 193°
2026-05-05 12:16 50.60313 13.60041 36100 ft 414 kts 193°
2026-05-05 12:16 50.57475 13.59327 36347 ft 414 kts 193°
2026-05-05 12:16 50.54634 13.58612 36592 ft 413 kts 193°
2026-05-05 12:17 50.51798 13.57894 36826 ft 413 kts 193°
2026-05-05 12:17 50.48970 13.57177 37048 ft 412 kts 193°
2026-05-05 12:17 50.46136 13.56460 37274 ft 413 kts 193°
2026-05-05 12:17 50.43302 13.55750 37499 ft 412 kts 193°
2026-05-05 12:18 50.40470 13.55043 37706 ft 412 kts 193°
2026-05-05 12:18 50.37638 13.54334 37817 ft 414 kts 193°
2026-05-05 12:18 50.31896 13.52895 37823 ft 422 kts 193°
2026-05-05 12:19 50.26067 13.51440 37825 ft 425 kts 193°
2026-05-05 12:19 50.20230 13.49992 37817 ft 425 kts 192°
2026-05-05 12:20 50.14382 13.48544 37819 ft 426 kts 192°
2026-05-05 12:20 50.08536 13.47091 37810 ft 426 kts 192°
2026-05-05 12:21 50.02683 13.45638 37816 ft 426 kts 192°
2026-05-05 12:21 49.96819 13.44196 37821 ft 427 kts 192°
2026-05-05 12:22 49.90946 13.42757 37809 ft 427 kts 192°
2026-05-05 12:22 49.85082 13.41316 37823 ft 427 kts 192°
2026-05-05 12:23 49.79203 13.39871 37817 ft 428 kts 192°
2026-05-05 12:23 49.73418 13.38460 37831 ft 428 kts 192°
2026-05-05 12:24 49.67535 13.37022 37819 ft 428 kts 192°
2026-05-05 12:24 49.61653 13.35594 37817 ft 428 kts 192°
2026-05-05 12:25 49.55772 13.34171 37824 ft 428 kts 192°
2026-05-05 12:25 49.49887 13.32746 37815 ft 428 kts 192°
2026-05-05 12:26 49.43992 13.31335 37817 ft 429 kts 192°
2026-05-05 12:26 49.38102 13.29922 37817 ft 429 kts 192°
2026-05-05 12:27 49.32208 13.28503 37816 ft 429 kts 192°
2026-05-05 12:27 49.26329 13.26960 37816 ft 427 kts 198°
2026-05-05 12:28 49.21007 13.23216 37815 ft 420 kts 217°
2026-05-05 12:28 49.16241 13.18050 37811 ft 420 kts 217°
2026-05-05 12:29 49.11457 13.12884 37804 ft 421 kts 217°
2026-05-05 12:29 49.06668 13.07748 37810 ft 421 kts 216°
2026-05-05 12:30 49.01867 13.02620 37809 ft 421 kts 216°
2026-05-05 12:30 48.97072 12.97487 37804 ft 421 kts 216°
2026-05-05 12:31 48.92274 12.92361 37799 ft 421 kts 216°
2026-05-05 12:31 48.88285 12.88114 37802 ft 421 kts 216°
2026-05-05 12:32 48.83476 12.83013 37798 ft 421 kts 216°
2026-05-05 12:32 48.78668 12.77925 37801 ft 421 kts 216°
2026-05-05 12:33 48.73859 12.72841 37800 ft 421 kts 216°
2026-05-05 12:33 48.69046 12.67778 37797 ft 422 kts 216°
2026-05-05 12:34 48.64229 12.62717 37798 ft 421 kts 216°
2026-05-05 12:34 48.59415 12.57668 37803 ft 421 kts 216°
2026-05-05 12:35 48.54597 12.52626 37802 ft 421 kts 216°
2026-05-05 12:35 48.49783 12.47596 37808 ft 421 kts 216°
2026-05-05 12:36 48.44969 12.42579 37808 ft 421 kts 216°
2026-05-05 12:36 48.40146 12.37568 37814 ft 421 kts 216°
2026-05-05 12:37 48.35325 12.32570 37816 ft 421 kts 216°
2026-05-05 12:37 48.30505 12.27589 37816 ft 420 kts 216°
2026-05-05 12:38 48.25687 12.22617 37820 ft 420 kts 216°
2026-05-05 12:38 48.20870 12.17664 37814 ft 420 kts 215°
2026-05-05 12:39 48.15939 12.12982 37813 ft 421 kts 206°
2026-05-05 12:39 48.10357 12.10277 37810 ft 423 kts 198°
2026-05-05 12:40 48.04701 12.07883 37806 ft 423 kts 198°
2026-05-05 12:40 47.99043 12.05473 37805 ft 423 kts 198°
2026-05-05 12:41 47.93389 12.03068 37805 ft 423 kts 198°
2026-05-05 12:41 47.87731 12.00682 37803 ft 423 kts 198°
2026-05-05 12:42 47.82067 11.98297 37804 ft 423 kts 198°
2026-05-05 12:42 47.76405 11.95908 37815 ft 424 kts 198°
2026-05-05 12:43 47.70746 11.93490 37811 ft 422 kts 199°
2026-05-05 12:43 47.65188 11.90860 37806 ft 422 kts 200°
2026-05-05 12:44 47.59573 11.88109 37808 ft 422 kts 200°
2026-05-05 12:44 47.53977 11.85424 37811 ft 423 kts 200°
2026-05-05 12:45 47.48408 11.82806 37819 ft 423 kts 200°
2026-05-05 12:45 47.42789 11.80180 37825 ft 424 kts 200°
2026-05-05 12:46 47.37171 11.77541 37840 ft 424 kts 199°
2026-05-05 12:46 47.31361 11.75875 37848 ft 426 kts 191°
2026-05-05 12:47 47.25495 11.74531 37864 ft 427 kts 192°
2026-05-05 12:47 47.19623 11.73170 37869 ft 427 kts 192°
2026-05-05 12:48 47.13764 11.71805 37869 ft 426 kts 192°
2026-05-05 12:48 47.07860 11.70442 37884 ft 427 kts 192°
2026-05-05 12:49 47.02027 11.68921 37897 ft 424 kts 199°
2026-05-05 12:49 46.99275 11.67422 37714 ft 422 kts 207°
2026-05-05 12:49 46.96607 11.65624 37450 ft 422 kts 207°
2026-05-05 12:50 46.93943 11.63825 37183 ft 422 kts 207°
2026-05-05 12:50 46.91316 11.62050 36945 ft 421 kts 206°
2026-05-05 12:50 46.85954 11.58458 36949 ft 422 kts 206°
2026-05-05 12:51 46.80610 11.54904 36958 ft 422 kts 206°
2026-05-05 12:51 46.75294 11.51377 36972 ft 423 kts 206°
2026-05-05 12:52 46.70099 11.47436 36989 ft 420 kts 218°
2026-05-05 12:52 46.66087 11.41364 37002 ft 417 kts 234°
2026-05-05 12:53 46.62659 11.34555 36996 ft 417 kts 234°
2026-05-05 12:53 46.59208 11.27787 37009 ft 416 kts 234°
2026-05-05 12:54 46.54039 11.17654 36999 ft 415 kts 234°
2026-05-05 12:55 46.50708 11.10793 37019 ft 416 kts 236°
2026-05-05 12:55 46.47449 11.03882 37059 ft 414 kts 236°
2026-05-05 12:56 46.44183 10.97010 37057 ft 413 kts 236°
2026-05-05 12:56 46.40894 10.90172 37045 ft 413 kts 236°
2026-05-05 12:57 46.37602 10.83363 37036 ft 412 kts 236°
2026-05-05 12:57 46.34309 10.76569 37043 ft 412 kts 236°
2026-05-05 12:58 46.31023 10.69777 37016 ft 412 kts 236°
2026-05-05 12:58 46.27730 10.62996 37029 ft 412 kts 236°
2026-05-05 12:59 46.24432 10.56224 37026 ft 412 kts 236°
2026-05-05 12:59 46.21141 10.49472 37008 ft 411 kts 235°
2026-05-05 13:00 46.16195 10.39364 37022 ft 411 kts 235°
2026-05-05 13:01 46.09589 10.25911 37007 ft 411 kts 234°
2026-05-05 13:01 46.06275 10.19211 37021 ft 411 kts 234°
2026-05-05 13:02 46.02959 10.12512 37007 ft 411 kts 234°
2026-05-05 13:02 45.99644 10.05830 37017 ft 410 kts 234°
2026-05-05 13:03 45.96329 9.99155 37014 ft 410 kts 234°
2026-05-05 13:03 45.93014 9.92495 37022 ft 410 kts 234°
2026-05-05 13:04 45.89699 9.85851 37010 ft 409 kts 234°
2026-05-05 13:04 45.86400 9.79257 37007 ft 409 kts 234°
2026-05-05 13:05 45.83081 9.72640 37015 ft 409 kts 234°
2026-05-05 13:05 45.79763 9.66033 37016 ft 408 kts 234°
2026-05-05 13:06 45.76423 9.59401 37021 ft 408 kts 234°
2026-05-05 13:06 45.73124 9.52874 37008 ft 407 kts 234°
2026-05-05 13:07 45.69778 9.46276 37123 ft 407 kts 234°
2026-05-05 13:07 45.66451 9.39734 37130 ft 407 kts 234°
2026-05-05 13:08 45.63125 9.33198 37124 ft 406 kts 234°
2026-05-05 13:08 45.59791 9.26679 37009 ft 406 kts 233°
2026-05-05 13:09 45.56482 9.20208 37018 ft 406 kts 233°
2026-05-05 13:09 45.53131 9.13662 37015 ft 406 kts 233°
2026-05-05 13:10 45.49800 9.07164 37012 ft 405 kts 233°
2026-05-05 13:10 45.46472 9.00682 37013 ft 405 kts 233°
2026-05-05 13:11 45.43127 8.94219 37015 ft 405 kts 233°
2026-05-05 13:11 45.39779 8.87752 37031 ft 406 kts 233°
2026-05-05 13:12 45.36432 8.81301 37042 ft 405 kts 232°
2026-05-05 13:12 45.32280 8.75958 37038 ft 407 kts 212°
2026-05-05 13:13 45.29705 8.74277 37044 ft 410 kts 201°
2026-05-05 13:13 45.26982 8.73057 37039 ft 410 kts 201°
2026-05-05 13:13 45.22450 8.71053 37028 ft 411 kts 201°
2026-05-05 13:14 45.16998 8.68638 37001 ft 411 kts 201°
2026-05-05 13:14 45.10655 8.65819 37004 ft 411 kts 201°
2026-05-05 13:15 45.06083 8.63801 37008 ft 411 kts 201°
2026-05-05 13:15 45.00630 8.61393 37007 ft 411 kts 201°
2026-05-05 13:16 44.95170 8.58993 37003 ft 411 kts 201°
2026-05-05 13:16 44.89718 8.56600 36998 ft 410 kts 201°
2026-05-05 13:17 44.84265 8.54205 36997 ft 410 kts 201°
2026-05-05 13:17 44.78814 8.51809 36996 ft 410 kts 201°
2026-05-05 13:18 44.73362 8.49431 36986 ft 410 kts 201°
2026-05-05 13:18 44.67913 8.47052 36989 ft 410 kts 201°
2026-05-05 13:19 44.62495 8.44704 36825 ft 412 kts 201°
2026-05-05 13:19 44.59729 8.43500 35778 ft 422 kts 201°
2026-05-05 13:19 44.56922 8.42279 35033 ft 422 kts 201°
2026-05-05 13:20 44.54126 8.41062 34307 ft 421 kts 201°
2026-05-05 13:20 44.51329 8.39847 33505 ft 421 kts 201°
2026-05-05 13:20 44.48522 8.38634 32584 ft 422 kts 201°
2026-05-05 13:20 44.45713 8.37416 31635 ft 424 kts 201°
2026-05-05 13:21 44.42894 8.36197 30817 ft 423 kts 201°
2026-05-05 13:21 44.40088 8.34988 29998 ft 422 kts 201°
2026-05-05 13:21 44.37281 8.33780 29036 ft 421 kts 201°
2026-05-05 13:21 44.34500 8.32587 28418 ft 414 kts 202°
2026-05-05 13:22 44.31901 8.31045 27818 ft 400 kts 212°
2026-05-05 13:22 44.29640 8.28859 27157 ft 391 kts 223°
2026-05-05 13:22 44.27770 8.26153 26520 ft 385 kts 233°
2026-05-05 13:22 44.26223 8.23078 25898 ft 380 kts 236°
2026-05-05 13:23 44.24729 8.20054 25268 ft 376 kts 236°
2026-05-05 13:23 44.23244 8.17069 24659 ft 373 kts 236°
2026-05-05 13:23 44.21789 8.14150 24082 ft 370 kts 236°
2026-05-05 13:23 44.20372 8.11304 23521 ft 367 kts 236°
2026-05-05 13:24 44.18904 8.08355 22881 ft 363 kts 236°
2026-05-05 13:24 44.17498 8.05533 22401 ft 357 kts 236°
2026-05-05 13:24 44.16096 8.02716 21891 ft 351 kts 235°
2026-05-05 13:24 44.14714 7.99948 21433 ft 345 kts 235°
2026-05-05 13:25 44.13335 7.97189 20967 ft 340 kts 235°
2026-05-05 13:25 44.11993 7.94503 20508 ft 337 kts 234°
2026-05-05 13:25 44.10679 7.91877 20051 ft 334 kts 234°
2026-05-05 13:25 44.09356 7.89235 19602 ft 332 kts 234°
2026-05-05 13:26 44.08040 7.86617 19121 ft 329 kts 234°
2026-05-05 13:26 44.06726 7.84006 18651 ft 329 kts 234°
2026-05-05 13:26 44.05414 7.81401 18144 ft 329 kts 234°
2026-05-05 13:26 44.04107 7.78805 17634 ft 326 kts 234°
2026-05-05 13:27 44.02806 7.76231 17143 ft 327 kts 232°
2026-05-05 13:27 44.01162 7.74029 16659 ft 332 kts 215°
2026-05-05 13:27 43.99204 7.72310 16257 ft 334 kts 212°
2026-05-05 13:27 43.97189 7.70714 15899 ft 334 kts 210°
2026-05-05 13:28 43.95155 7.69168 15557 ft 332 kts 210°
2026-05-05 13:28 43.93122 7.67647 15217 ft 331 kts 210°
2026-05-05 13:28 43.91099 7.66136 14871 ft 330 kts 210°
2026-05-05 13:28 43.89085 7.64622 14532 ft 329 kts 210°
2026-05-05 13:29 43.87078 7.63106 14198 ft 327 kts 210°
2026-05-05 13:29 43.85084 7.61591 13868 ft 327 kts 210°
2026-05-05 13:29 43.83099 7.60079 13514 ft 326 kts 210°
2026-05-05 13:29 43.81116 7.58564 13135 ft 324 kts 211°
2026-05-05 13:30 43.79141 7.57054 12778 ft 325 kts 210°
2026-05-05 13:30 43.77166 7.55547 12425 ft 324 kts 210°
2026-05-05 13:30 43.75193 7.54049 12065 ft 323 kts 210°
2026-05-05 13:30 43.73224 7.52556 11710 ft 323 kts 210°
2026-05-05 13:31 43.71256 7.51068 11359 ft 322 kts 210°
2026-05-05 13:31 43.69294 7.49584 11016 ft 321 kts 210°
2026-05-05 13:31 43.67334 7.48103 10671 ft 321 kts 210°
2026-05-05 13:31 43.65380 7.46623 10331 ft 320 kts 210°
2026-05-05 13:32 43.63426 7.45147 9999 ft 319 kts 210°
2026-05-05 13:32 43.61496 7.43691 9653 ft 313 kts 210°
2026-05-05 13:32 43.59607 7.42267 9290 ft 307 kts 210°
2026-05-05 13:32 43.57753 7.40868 8920 ft 301 kts 210°
2026-05-05 13:33 43.55931 7.39494 8563 ft 296 kts 210°
2026-05-05 13:33 43.54137 7.38140 8212 ft 291 kts 210°
2026-05-05 13:33 43.52372 7.36812 7864 ft 287 kts 210°
2026-05-05 13:33 43.50632 7.35509 7514 ft 283 kts 210°
2026-05-05 13:34 43.48918 7.34226 7167 ft 278 kts 210°
2026-05-05 13:34 43.47232 7.32962 6823 ft 274 kts 210°
2026-05-05 13:34 43.45571 7.31715 6490 ft 270 kts 210°
2026-05-05 13:34 43.44001 7.30348 6137 ft 265 kts 220°
2026-05-05 13:35 43.42724 7.28555 5779 ft 261 kts 233°
2026-05-05 13:35 43.41793 7.26435 5422 ft 259 kts 245°
2026-05-05 13:35 43.41237 7.24089 5081 ft 259 kts 258°
2026-05-05 13:35 43.41004 7.21631 4726 ft 260 kts 262°
2026-05-05 13:36 43.40792 7.19160 4381 ft 263 kts 262°
2026-05-05 13:36 43.40570 7.16686 4056 ft 256 kts 262°
2026-05-05 13:36 43.40349 7.14268 4003 ft 257 kts 262°
2026-05-05 13:36 43.40127 7.11807 4002 ft 259 kts 262°
2026-05-05 13:37 43.39906 7.09350 4002 ft 259 kts 262°
2026-05-05 13:37 43.39695 7.06895 4006 ft 259 kts 262°
2026-05-05 13:37 43.39479 7.04437 4004 ft 259 kts 262°
2026-05-05 13:37 43.39259 7.01974 4005 ft 259 kts 262°
2026-05-05 13:38 43.39316 6.99507 4006 ft 261 kts 284°
2026-05-05 13:38 43.40159 6.97349 4008 ft 252 kts 311°
2026-05-05 13:38 43.41538 6.96021 4007 ft 236 kts 337°
2026-05-05 13:38 43.43108 6.95632 4005 ft 228 kts 358°
2026-05-05 13:39 43.44663 6.95609 4010 ft 217 kts 358°
2026-05-05 13:39 43.46131 6.95732 4015 ft 209 kts 12°
2026-05-05 13:39 43.47457 6.96492 4015 ft 208 kts 34°
2026-05-05 13:39 43.48582 6.97733 4010 ft 208 kts 43°
2026-05-05 13:40 43.49627 6.99109 4013 ft 208 kts 45°
2026-05-05 13:40 43.50643 7.00502 3960 ft 200 kts 45°
2026-05-05 13:40 43.51605 7.01817 3728 ft 193 kts 45°
2026-05-05 13:40 43.52554 7.03110 3489 ft 190 kts 45°
2026-05-05 13:41 43.53492 7.04387 3232 ft 188 kts 45°
2026-05-05 13:41 43.54408 7.05635 2975 ft 184 kts 46°
2026-05-05 13:41 43.55300 7.06861 2741 ft 178 kts 46°
2026-05-05 13:41 43.56183 7.08064 2502 ft 178 kts 45°
2026-05-05 13:42 43.57061 7.09260 2264 ft 177 kts 46°
2026-05-05 13:42 43.57932 7.10460 2032 ft 177 kts 46°
2026-05-05 13:42 43.58802 7.11663 1802 ft 177 kts 46°
2026-05-05 13:42 43.59684 7.12868 1548 ft 179 kts 46°
2026-05-05 13:43 43.60560 7.14083 1313 ft 177 kts 46°
2026-05-05 13:43 43.61402 7.15240 1084 ft 166 kts 46°
2026-05-05 13:43 43.62198 7.16323 853 ft 156 kts 46°
2026-05-05 13:43 43.62930 7.17318 680 ft 140 kts 47°
2026-05-05 13:44 43.63593 7.18225 498 ft 132 kts 48°
2026-05-05 13:44 43.64239 7.19106 327 ft 129 kts 48°
2026-05-05 13:44 43.64875 7.19971 156 ft 127 kts 49°
2026-05-05 13:44 43.65492 7.20835 27 ft 123 kts 49°
2026-05-05 13:45 43.65968 7.21486 21 ft 57 kts 45°
2026-05-05 13:45 43.66120 7.21696 21 ft 19 kts 44°
2026-05-05 13:45 43.66198 7.21760 21 ft 13 kts 354°
2026-05-05 13:45 43.66265 7.21682 21 ft 12 kts 315°
2026-05-05 13:46 43.66322 7.21603 21 ft 11 kts 315°
2026-05-05 13:46 43.66372 7.21528 21 ft 10 kts 299°
2026-05-05 13:46 43.66356 7.21447 21 ft 9 kts 235°
2026-05-05 13:46 43.66317 7.21387 21 ft 8 kts 224°
2026-05-05 13:47 43.66279 7.21335 21 ft 7 kts 225°
2026-05-05 13:47 43.66240 7.21282 21 ft 9 kts 225°
2026-05-05 13:47 43.66191 7.21214 21 ft 11 kts 225°
2026-05-05 13:47 43.66133 7.21135 21 ft 12 kts 225°
2026-05-05 13:48 43.66077 7.21058 21 ft 11 kts 224°
2026-05-05 13:48 43.66025 7.20987 21 ft 10 kts 225°
2026-05-05 13:48 43.65975 7.20916 21 ft 11 kts 231°
2026-05-05 13:48 43.65987 7.20828 21 ft 10 kts 323°
2026-05-05 13:49 43.66027 7.20778 21 ft 7 kts 294°
2026-05-05 13:49 43.66044 7.20719 24 ft 3 kts 290°
2026-05-05 13:49 43.66047 7.20710 22 ft 0 kts 290°